World > North America > United States > Ohio > Hayesville  

Hayesville, OH Hourly Weather Updates

Feedback E-mail the Weather

Quick Clicks

Hayesville, OH Weather Maps

°F °C°F °C
Hayesville Weather Map
UTC Time: 6/24/2024, 02:52
Your Time:

Hayesville, OH Regional Weather

Expires:202406240300;;554082
ASUS41 KCLE 240212
RWRCLE
OHIO REGIONAL WEATHER ROUNDUP
NATIONAL WEATHER SERVICE WILMINGTON, OH
1000 PM EDT SUN JUN 23 2024

NOTE: "FAIR" INDICATES FEW OR NO CLOUDS BELOW 12,000 FEET WITH NO
SIGNIFICANT WEATHER AND/OR OBSTRUCTIONS TO VISIBILITY.


OHZ009>014-019>023-028>033-038-089-240300-
   NORTHEAST OHIO
  
CITY           SKY/WX    TMP DP  RH WIND       PRES   REMARKS
CLE-HOPKINS    CLOUDY    74  63  68 NW9       29.72R                  
CLE-LAKEFRONT  FAIR      75  65  70 N13       29.73R                  
CUY CO. ARPT   CLOUDY    72  63  73 N7        29.75R                  
LORAIN-ELYRIA  CLOUDY    74  64  71 NW10G20   29.75R                  
ASHTABULA      CLOUDY    70  63  78 VRB5      29.73R                  
AKRON-CANTON   MOCLDY    74  62  66 NW9       29.75R                  
WOOSTER        FAIR      73  63  70 NW8       29.77R                  
MANSFIELD      MOCLDY    73  61  65 NW10G21   29.78R                  
YOUNGSTOWN     MOCLDY    71  63  75 NW7       29.74R                  
$$
 

SKY/WX - Weather  TMP - Temperature  DP - Dew Point  RH - Humidity
WIND - Wind Direction/Speed PRES - Barometric Pressure VSB - Visibility
WCI - Wind Chill Index E13G22 Wind - East Wind 13 mph/Gusts of 22 mph

Trending Headlines

Trending Entertainment Headlines

Hayesville Radar Loop

Use the map search tool if you want to place a location marker on the radar map...

Hayesville Quick Facts

National Two Day Weather Forecast


E-mail the Hayesville Weather Forecast

Voice your opinion or tell us about page issues...